sat.trackr.live / text

‹ back to catalog

ONEWEB-0225

NORAD 48799 · 2021-045AJ

PAYLOAD ACTIVE UNKNOWN

§ Identity

Operator
Country
UK
Launch date
2021-05-28
Launch site
VOSTO
Launch vehicle
Mass (kg)
RCS (m²)

Purposes: comms

External: N2YO · Heavens-Above · Gunter

§ Orbital elements

Epoch: 2026-05-24T18:50:27.278016Z

Period
109.46 min
Inclination
87.8990°
Eccentricity
0.0001464
Mean motion
13.15547830 rev/d
Perigee alt
1,200.7 km
Apogee alt
1,202.9 km
Semi-major
7,579.9 km
B*
3.7198e-4
RAAN
263.8607°
Arg perigee
86.0683°
Mean anomaly
274.0615°
Rev number
24,134

§ Raw data

ONEWEB-02251 48799U 21045AJ  26144.78503794  .00000153  00000+0  37198-3 0  99982 48799  87.8990 263.8607 0001464  86.0683 274.0615 13.15547830241344

JSON: /api/v1/satellites/48799 · /tle

For live sub-satellite position, see the globe view (requires WebGL).

§ Visibility from observer

Set your observer location to see the next 7 days of passes ≥ 10°. The values pass through the URL so the page stays shareable.

No JS? Fill the form by hand. The geolocation button needs JavaScript.